Year,Month,Day,Hour,Minute,Value (Times are PST for insolation in W/m^2)
2023,01,29,00,00,0.00
2023,01,29,00,01,0.00
2023,01,29,00,02,0.00
2023,01,29,00,03,0.00
2023,01,29,00,04,0.00
2023,01,29,00,05,0.00
2023,01,29,00,06,0.00
2023,01,29,00,07,0.00
2023,01,29,00,08,0.00
2023,01,29,00,09,0.00
2023,01,29,00,10,0.00
2023,01,29,00,11,0.00
2023,01,29,00,12,0.00
2023,01,29,00,13,0.00
2023,01,29,00,14,0.00
2023,01,29,00,15,0.00
2023,01,29,00,16,0.00
2023,01,29,00,17,0.00
2023,01,29,00,18,0.00
2023,01,29,00,19,0.00
2023,01,29,00,20,0.00
2023,01,29,00,21,0.00
2023,01,29,00,22,0.00
2023,01,29,00,23,0.00
2023,01,29,00,24,0.00
2023,01,29,00,25,0.00
2023,01,29,00,26,0.00
2023,01,29,00,27,0.00
2023,01,29,00,28,0.00
2023,01,29,00,29,0.00
2023,01,29,00,30,0.00
2023,01,29,00,31,0.00
2023,01,29,00,32,0.00
2023,01,29,00,33,0.00
2023,01,29,00,34,0.00
2023,01,29,00,35,0.00
2023,01,29,00,36,0.00
2023,01,29,00,37,0.00
2023,01,29,00,38,0.00
2023,01,29,00,39,0.00
2023,01,29,00,40,0.00
2023,01,29,00,41,0.00
2023,01,29,00,42,0.00
2023,01,29,00,43,0.00
2023,01,29,00,44,0.00
2023,01,29,00,45,0.00
2023,01,29,00,46,0.00
2023,01,29,00,47,0.00
2023,01,29,00,48,0.00
2023,01,29,00,49,0.00
2023,01,29,00,50,0.00
2023,01,29,00,51,0.00
2023,01,29,00,52,0.00
2023,01,29,00,53,0.00
2023,01,29,00,54,0.00
2023,01,29,00,55,0.00
2023,01,29,00,56,0.00
2023,01,29,00,57,0.00
2023,01,29,00,58,0.00
2023,01,29,00,59,0.00
2023,01,29,01,00,0.00
2023,01,29,01,01,0.00
2023,01,29,01,02,0.00
2023,01,29,01,03,0.00
2023,01,29,01,04,0.00
2023,01,29,01,05,0.00
2023,01,29,01,06,0.00
2023,01,29,01,07,0.00
2023,01,29,01,08,0.00
2023,01,29,01,09,0.00
2023,01,29,01,10,0.00
2023,01,29,01,11,0.00
2023,01,29,01,12,0.00
2023,01,29,01,13,0.00
2023,01,29,01,14,0.00
2023,01,29,01,15,0.00
2023,01,29,01,16,0.00
2023,01,29,01,17,0.00
2023,01,29,01,18,0.00
2023,01,29,01,19,0.00
2023,01,29,01,20,0.00
2023,01,29,01,21,0.00
2023,01,29,01,22,0.00
2023,01,29,01,23,0.00
2023,01,29,01,24,0.00
2023,01,29,01,25,0.00
2023,01,29,01,26,0.00
2023,01,29,01,27,0.00
2023,01,29,01,28,0.00
2023,01,29,01,29,0.00
2023,01,29,01,30,0.00
2023,01,29,01,31,0.00
2023,01,29,01,32,0.00
2023,01,29,01,33,0.00
2023,01,29,01,34,0.00
2023,01,29,01,35,0.00
2023,01,29,01,36,0.00
2023,01,29,01,37,0.00
2023,01,29,01,38,0.00
2023,01,29,01,39,0.00
2023,01,29,01,40,0.00
2023,01,29,01,41,0.00
2023,01,29,01,42,0.00
2023,01,29,01,43,0.00
2023,01,29,01,44,0.00
2023,01,29,01,45,0.00
2023,01,29,01,46,0.00
2023,01,29,01,47,0.00
2023,01,29,01,48,0.00
2023,01,29,01,49,0.00
2023,01,29,01,50,0.00
2023,01,29,01,51,0.00
2023,01,29,01,52,0.00
2023,01,29,01,53,0.00
2023,01,29,01,54,0.00
2023,01,29,01,55,0.00
2023,01,29,01,56,0.00
2023,01,29,01,57,0.00
2023,01,29,01,58,0.00
2023,01,29,01,59,0.00
2023,01,29,02,00,0.00
2023,01,29,02,01,0.00
2023,01,29,02,02,0.00
2023,01,29,02,03,0.00
2023,01,29,02,04,0.00
2023,01,29,02,05,0.00
2023,01,29,02,06,0.00
2023,01,29,02,07,0.00
2023,01,29,02,08,0.00
2023,01,29,02,09,0.00
2023,01,29,02,10,0.00
2023,01,29,02,11,0.00
2023,01,29,02,12,0.00
2023,01,29,02,13,0.00
2023,01,29,02,14,0.00
2023,01,29,02,15,0.00
2023,01,29,02,16,0.00
2023,01,29,02,17,0.00
2023,01,29,02,18,0.00
2023,01,29,02,19,0.00
2023,01,29,02,20,0.00
2023,01,29,02,21,0.00
2023,01,29,02,22,0.00
2023,01,29,02,23,0.00
2023,01,29,02,24,0.00
2023,01,29,02,25,0.00
2023,01,29,02,26,0.00
2023,01,29,02,27,0.00
2023,01,29,02,28,0.00
2023,01,29,02,29,0.00
2023,01,29,02,30,0.00
2023,01,29,02,31,0.00
2023,01,29,02,32,0.00
2023,01,29,02,33,0.00
2023,01,29,02,34,0.00
2023,01,29,02,35,0.00
2023,01,29,02,36,0.00
2023,01,29,02,37,0.00
2023,01,29,02,38,0.00
2023,01,29,02,39,0.00
2023,01,29,02,40,0.00
2023,01,29,02,41,0.00
2023,01,29,02,42,0.00
2023,01,29,02,43,0.00
2023,01,29,02,44,0.00
2023,01,29,02,45,0.00
2023,01,29,02,46,0.00
2023,01,29,02,47,0.00
2023,01,29,02,48,0.00
2023,01,29,02,49,0.00
2023,01,29,02,50,0.00
2023,01,29,02,51,0.00
2023,01,29,02,52,0.00
2023,01,29,02,53,0.00
2023,01,29,02,54,0.00
2023,01,29,02,55,0.00
2023,01,29,02,56,0.00
2023,01,29,02,57,0.00
2023,01,29,02,58,0.00
2023,01,29,02,59,0.00
2023,01,29,03,00,0.00
2023,01,29,03,01,0.00
2023,01,29,03,02,0.00
2023,01,29,03,03,0.00
2023,01,29,03,04,0.00
2023,01,29,03,05,0.00
2023,01,29,03,06,0.00
2023,01,29,03,07,0.00
2023,01,29,03,08,0.00
2023,01,29,03,09,0.00
2023,01,29,03,10,0.00
2023,01,29,03,11,0.00
2023,01,29,03,12,0.00
2023,01,29,03,13,0.00
2023,01,29,03,14,0.00
2023,01,29,03,15,0.00
2023,01,29,03,16,0.00
2023,01,29,03,17,0.00
2023,01,29,03,18,0.00
2023,01,29,03,19,0.00
2023,01,29,03,20,0.00
2023,01,29,03,21,0.00
2023,01,29,03,22,0.00
2023,01,29,03,23,0.00
2023,01,29,03,24,0.00
2023,01,29,03,25,0.00
2023,01,29,03,26,0.00
2023,01,29,03,27,0.00
2023,01,29,03,28,0.00
2023,01,29,03,29,0.00
2023,01,29,03,30,0.00
2023,01,29,03,31,0.00
2023,01,29,03,32,0.00
2023,01,29,03,33,0.00
2023,01,29,03,34,0.00
2023,01,29,03,35,0.00
2023,01,29,03,36,0.00
2023,01,29,03,37,0.00
2023,01,29,03,38,0.00
2023,01,29,03,39,0.00
2023,01,29,03,40,0.00
2023,01,29,03,41,0.00
2023,01,29,03,42,0.00
2023,01,29,03,43,0.00
2023,01,29,03,44,0.00
2023,01,29,03,45,0.00
2023,01,29,03,46,0.00
2023,01,29,03,47,0.00
2023,01,29,03,48,0.00
2023,01,29,03,49,0.00
2023,01,29,03,50,0.00
2023,01,29,03,51,0.00
2023,01,29,03,52,0.00
2023,01,29,03,53,0.00
2023,01,29,03,54,0.00
2023,01,29,03,55,0.00
2023,01,29,03,56,0.00
2023,01,29,03,57,0.00
2023,01,29,03,58,0.00
2023,01,29,03,59,0.00
2023,01,29,04,00,0.00
2023,01,29,04,01,0.00
2023,01,29,04,02,0.00
2023,01,29,04,03,0.00
2023,01,29,04,04,0.00
2023,01,29,04,05,0.00
2023,01,29,04,06,0.00
2023,01,29,04,07,0.00
2023,01,29,04,08,0.00
2023,01,29,04,09,0.00
2023,01,29,04,10,0.00
2023,01,29,04,11,0.00
2023,01,29,04,12,0.00
2023,01,29,04,13,0.00
2023,01,29,04,14,0.00
2023,01,29,04,15,0.00
2023,01,29,04,16,0.00
2023,01,29,04,17,0.00
2023,01,29,04,18,0.00
2023,01,29,04,19,0.00
2023,01,29,04,20,0.00
2023,01,29,04,21,0.00
2023,01,29,04,22,0.00
2023,01,29,04,23,0.00
2023,01,29,04,24,0.00
2023,01,29,04,25,0.00
2023,01,29,04,26,0.00
2023,01,29,04,27,0.00
2023,01,29,04,28,0.00
2023,01,29,04,29,0.00
2023,01,29,04,30,0.00
2023,01,29,04,31,0.00
2023,01,29,04,32,0.00
2023,01,29,04,33,0.00
2023,01,29,04,34,0.00
2023,01,29,04,35,0.00
2023,01,29,04,36,0.00
2023,01,29,04,37,0.00
2023,01,29,04,38,0.00
2023,01,29,04,39,0.00
2023,01,29,04,40,0.00
2023,01,29,04,41,0.00
2023,01,29,04,42,0.00
2023,01,29,04,43,0.00
2023,01,29,04,44,0.00
2023,01,29,04,45,0.00
2023,01,29,04,46,0.00
2023,01,29,04,47,0.00
2023,01,29,04,48,0.00
2023,01,29,04,49,0.00
2023,01,29,04,50,0.00
2023,01,29,04,51,0.00
2023,01,29,04,52,0.00
2023,01,29,04,53,0.00
2023,01,29,04,54,0.00
2023,01,29,04,55,0.00
2023,01,29,04,56,0.00
2023,01,29,04,57,0.00
2023,01,29,04,58,0.00
2023,01,29,04,59,0.00
2023,01,29,05,00,0.00
2023,01,29,05,01,0.00
2023,01,29,05,02,0.00
2023,01,29,05,03,0.00
2023,01,29,05,04,0.00
2023,01,29,05,05,0.00
2023,01,29,05,06,0.00
2023,01,29,05,07,0.00
2023,01,29,05,08,0.00
2023,01,29,05,09,0.00
2023,01,29,05,10,0.00
2023,01,29,05,11,0.00
2023,01,29,05,12,0.00
2023,01,29,05,13,0.00
2023,01,29,05,14,0.00
2023,01,29,05,15,0.00
2023,01,29,05,16,0.00
2023,01,29,05,17,0.00
2023,01,29,05,18,0.00
2023,01,29,05,19,0.00
2023,01,29,05,20,0.00
2023,01,29,05,21,0.00
2023,01,29,05,22,0.00
2023,01,29,05,23,0.00
2023,01,29,05,24,0.00
2023,01,29,05,25,0.00
2023,01,29,05,26,0.00
2023,01,29,05,27,0.00
2023,01,29,05,28,0.00
2023,01,29,05,29,0.00
2023,01,29,05,30,0.00
2023,01,29,05,31,0.00
2023,01,29,05,32,0.00
2023,01,29,05,33,0.00
2023,01,29,05,34,0.00
2023,01,29,05,35,0.00
2023,01,29,05,36,0.00
2023,01,29,05,37,0.00
2023,01,29,05,38,0.00
2023,01,29,05,39,0.00
2023,01,29,05,40,0.00
2023,01,29,05,41,0.00
2023,01,29,05,42,0.00
2023,01,29,05,43,0.00
2023,01,29,05,44,0.00
2023,01,29,05,45,0.00
2023,01,29,05,46,0.00
2023,01,29,05,47,0.00
2023,01,29,05,48,0.00
2023,01,29,05,49,0.00
2023,01,29,05,50,0.00
2023,01,29,05,51,0.00
2023,01,29,05,52,0.00
2023,01,29,05,53,0.00
2023,01,29,05,54,0.00
2023,01,29,05,55,0.00
2023,01,29,05,56,0.00
2023,01,29,05,57,0.00
2023,01,29,05,58,0.00
2023,01,29,05,59,0.00
2023,01,29,06,00,0.00
2023,01,29,06,01,0.00
2023,01,29,06,02,0.00
2023,01,29,06,03,0.00
2023,01,29,06,04,0.00
2023,01,29,06,05,0.00
2023,01,29,06,06,0.00
2023,01,29,06,07,0.00
2023,01,29,06,08,0.00
2023,01,29,06,09,0.00
2023,01,29,06,10,0.00
2023,01,29,06,11,0.00
2023,01,29,06,12,0.00
2023,01,29,06,13,0.00
2023,01,29,06,14,0.00
2023,01,29,06,15,0.00
2023,01,29,06,16,0.00
2023,01,29,06,17,0.00
2023,01,29,06,18,0.00
2023,01,29,06,19,0.00
2023,01,29,06,20,0.00
2023,01,29,06,21,0.00
2023,01,29,06,22,0.00
2023,01,29,06,23,0.00
2023,01,29,06,24,0.00
2023,01,29,06,25,0.00
2023,01,29,06,26,0.00
2023,01,29,06,27,0.00
2023,01,29,06,28,0.00
2023,01,29,06,29,0.00
2023,01,29,06,30,0.00
2023,01,29,06,31,0.00
2023,01,29,06,32,0.00
2023,01,29,06,33,0.00
2023,01,29,06,34,0.00
2023,01,29,06,35,0.00
2023,01,29,06,36,0.00
2023,01,29,06,37,0.00
2023,01,29,06,38,0.00
2023,01,29,06,39,0.00
2023,01,29,06,40,0.00
2023,01,29,06,41,0.00
2023,01,29,06,42,0.00
2023,01,29,06,43,0.00
2023,01,29,06,44,0.00
2023,01,29,06,45,0.00
2023,01,29,06,46,0.00
2023,01,29,06,47,0.00
2023,01,29,06,48,0.00
2023,01,29,06,49,0.00
2023,01,29,06,50,0.00
2023,01,29,06,51,0.00
2023,01,29,06,52,0.00
2023,01,29,06,53,0.00
2023,01,29,06,54,0.00
2023,01,29,06,55,0.00
2023,01,29,06,56,0.00
2023,01,29,06,57,0.00
2023,01,29,06,58,0.00
2023,01,29,06,59,0.00
2023,01,29,07,00,0.00
2023,01,29,07,01,0.00
2023,01,29,07,02,0.00
2023,01,29,07,03,0.00
2023,01,29,07,04,0.00
2023,01,29,07,05,0.00
2023,01,29,07,06,0.00
2023,01,29,07,07,0.00
2023,01,29,07,08,0.00
2023,01,29,07,09,0.00
2023,01,29,07,10,0.00
2023,01,29,07,11,0.00
2023,01,29,07,12,0.00
2023,01,29,07,13,0.00
2023,01,29,07,14,0.00
2023,01,29,07,15,0.00
2023,01,29,07,16,0.00
2023,01,29,07,17,0.00
2023,01,29,07,18,0.00
2023,01,29,07,19,0.00
2023,01,29,07,20,0.00
2023,01,29,07,21,0.00
2023,01,29,07,22,0.00
2023,01,29,07,23,0.00
2023,01,29,07,24,0.00
2023,01,29,07,25,0.00
2023,01,29,07,26,0.00
2023,01,29,07,27,0.00
2023,01,29,07,28,0.00
2023,01,29,07,29,0.00
2023,01,29,07,30,0.00
2023,01,29,07,31,0.00
2023,01,29,07,32,0.00
2023,01,29,07,33,0.00
2023,01,29,07,34,0.00
2023,01,29,07,35,0.00
2023,01,29,07,36,0.00
2023,01,29,07,37,0.00
2023,01,29,07,38,0.00
2023,01,29,07,39,0.00
2023,01,29,07,40,0.00
2023,01,29,07,41,0.00
2023,01,29,07,42,0.00
2023,01,29,07,43,0.00
2023,01,29,07,44,0.00
2023,01,29,07,45,0.00
2023,01,29,07,46,3.40
2023,01,29,07,47,5.00
2023,01,29,07,48,5.00
2023,01,29,07,49,5.00
2023,01,29,07,50,5.00
2023,01,29,07,51,5.80
2023,01,29,07,52,7.00
2023,01,29,07,53,7.00
2023,01,29,07,54,7.00
2023,01,29,07,55,7.00
2023,01,29,07,56,7.00
2023,01,29,07,57,9.00
2023,01,29,07,58,9.00
2023,01,29,07,59,9.00
2023,01,29,08,00,9.00
2023,01,29,08,01,9.00
2023,01,29,08,02,10.30
2023,01,29,08,03,11.00
2023,01,29,08,04,11.00
2023,01,29,08,05,11.00
2023,01,29,08,06,11.00
2023,01,29,08,07,11.20
2023,01,29,08,08,12.00
2023,01,29,08,09,12.00
2023,01,29,08,10,12.00
2023,01,29,08,11,12.00
2023,01,29,08,12,13.70
2023,01,29,08,13,14.00
2023,01,29,08,14,16.00
2023,01,29,08,15,16.30
2023,01,29,08,16,18.00
2023,01,29,08,17,18.00
2023,01,29,08,18,18.60
2023,01,29,08,19,20.20
2023,01,29,08,20,21.00
2023,01,29,08,21,36.00
2023,01,29,08,22,35.40
2023,01,29,08,23,25.00
2023,01,29,08,24,25.80
2023,01,29,08,25,30.20
2023,01,29,08,26,35.90
2023,01,29,08,27,46.30
2023,01,29,08,28,67.00
2023,01,29,08,29,101.30
2023,01,29,08,30,148.80
2023,01,29,08,31,162.30
2023,01,29,08,32,165.40
2023,01,29,08,33,168.40
2023,01,29,08,34,172.00
2023,01,29,08,35,172.00
2023,01,29,08,36,177.20
2023,01,29,08,37,184.50
2023,01,29,08,38,189.20
2023,01,29,08,39,183.70
2023,01,29,08,40,143.80
2023,01,29,08,41,93.50
2023,01,29,08,42,66.90
2023,01,29,08,43,57.10
2023,01,29,08,44,55.30
2023,01,29,08,45,63.00
2023,01,29,08,46,66.50
2023,01,29,08,47,67.00
2023,01,29,08,48,48.60
2023,01,29,08,49,42.40
2023,01,29,08,50,47.80
2023,01,29,08,51,67.20
2023,01,29,08,52,138.50
2023,01,29,08,53,218.70
2023,01,29,08,54,245.40
2023,01,29,08,55,249.60
2023,01,29,08,56,252.50
2023,01,29,08,57,253.70
2023,01,29,08,58,260.90
2023,01,29,08,59,264.30
2023,01,29,09,00,266.50
2023,01,29,09,01,270.50
2023,01,29,09,02,272.00
2023,01,29,09,03,256.80
2023,01,29,09,04,215.50
2023,01,29,09,05,226.70
2023,01,29,09,06,229.00
2023,01,29,09,07,229.00
2023,01,29,09,08,221.30
2023,01,29,09,09,193.70
2023,01,29,09,10,155.30
2023,01,29,09,11,143.50
2023,01,29,09,12,181.40
2023,01,29,09,13,241.90
2023,01,29,09,14,298.90
2023,01,29,09,15,315.50
2023,01,29,09,16,318.60
2023,01,29,09,17,320.80
2023,01,29,09,18,324.40
2023,01,29,09,19,328.70
2023,01,29,09,20,332.70
2023,01,29,09,21,334.00
2023,01,29,09,22,340.30
2023,01,29,09,23,343.50
2023,01,29,09,24,348.30
2023,01,29,09,25,350.90
2023,01,29,09,26,353.80
2023,01,29,09,27,355.00
2023,01,29,09,28,358.10
2023,01,29,09,29,361.50
2023,01,29,09,30,365.60
2023,01,29,09,31,367.20
2023,01,29,09,32,371.50
2023,01,29,09,33,375.10
2023,01,29,09,34,378.70
2023,01,29,09,35,380.50
2023,01,29,09,36,382.10
2023,01,29,09,37,385.60
2023,01,29,09,38,389.30
2023,01,29,09,39,391.80
2023,01,29,09,40,394.20
2023,01,29,09,41,397.80
2023,01,29,09,42,401.60
2023,01,29,09,43,404.10
2023,01,29,09,44,406.90
2023,01,29,09,45,409.70
2023,01,29,09,46,413.70
2023,01,29,09,47,416.70
2023,01,29,09,48,417.90
2023,01,29,09,49,420.60
2023,01,29,09,50,424.30
2023,01,29,09,51,425.00
2023,01,29,09,52,427.40
2023,01,29,09,53,432.60
2023,01,29,09,54,435.30
2023,01,29,09,55,437.60
2023,01,29,09,56,438.90
2023,01,29,09,57,442.80
2023,01,29,09,58,443.60
2023,01,29,09,59,446.60
2023,01,29,10,00,450.20
2023,01,29,10,01,455.40
2023,01,29,10,02,457.00
2023,01,29,10,03,458.40
2023,01,29,10,04,460.60
2023,01,29,10,05,463.80
2023,01,29,10,06,466.20
2023,01,29,10,07,468.20
2023,01,29,10,08,469.70
2023,01,29,10,09,471.80
2023,01,29,10,10,474.10
2023,01,29,10,11,475.70
2023,01,29,10,12,477.50
2023,01,29,10,13,478.00
2023,01,29,10,14,478.30
2023,01,29,10,15,483.60
2023,01,29,10,16,487.40
2023,01,29,10,17,489.40
2023,01,29,10,18,491.90
2023,01,29,10,19,495.10
2023,01,29,10,20,497.90
2023,01,29,10,21,499.00
2023,01,29,10,22,499.00
2023,01,29,10,23,503.30
2023,01,29,10,24,506.00
2023,01,29,10,25,507.30
2023,01,29,10,26,510.80
2023,01,29,10,27,512.00
2023,01,29,10,28,512.60
2023,01,29,10,29,514.40
2023,01,29,10,30,515.00
2023,01,29,10,31,516.90
2023,01,29,10,32,520.30
2023,01,29,10,33,523.10
2023,01,29,10,34,526.00
2023,01,29,10,35,526.00
2023,01,29,10,36,527.70
2023,01,29,10,37,530.20
2023,01,29,10,38,533.30
2023,01,29,10,39,534.00
2023,01,29,10,40,536.20
2023,01,29,10,41,540.00
2023,01,29,10,42,540.30
2023,01,29,10,43,541.00
2023,01,29,10,44,542.90
2023,01,29,10,45,545.00
2023,01,29,10,46,546.40
2023,01,29,10,47,547.00
2023,01,29,10,48,549.70
2023,01,29,10,49,550.40
2023,01,29,10,50,554.20
2023,01,29,10,51,555.00
2023,01,29,10,52,555.00
2023,01,29,10,53,555.00
2023,01,29,10,54,559.90
2023,01,29,10,55,565.20
2023,01,29,10,56,566.00
2023,01,29,10,57,566.00
2023,01,29,10,58,566.00
2023,01,29,10,59,567.10
2023,01,29,11,00,570.60
2023,01,29,11,01,570.50
2023,01,29,11,02,571.00
2023,01,29,11,03,574.80
2023,01,29,11,04,577.70
2023,01,29,11,05,577.10
2023,01,29,11,06,579.80
2023,01,29,11,07,579.70
2023,01,29,11,08,578.00
2023,01,29,11,09,578.80
2023,01,29,11,10,580.00
2023,01,29,11,11,581.20
2023,01,29,11,12,582.00
2023,01,29,11,13,583.70
2023,01,29,11,14,585.00
2023,01,29,11,15,585.00
2023,01,29,11,16,585.50
2023,01,29,11,17,588.30
2023,01,29,11,18,591.40
2023,01,29,11,19,593.20
2023,01,29,11,20,595.30
2023,01,29,11,21,596.00
2023,01,29,11,22,597.70
2023,01,29,11,23,600.90
2023,01,29,11,24,599.00
2023,01,29,11,25,600.60
2023,01,29,11,26,605.40
2023,01,29,11,27,605.50
2023,01,29,11,28,605.60
2023,01,29,11,29,606.00
2023,01,29,11,30,607.60
2023,01,29,11,31,608.00
2023,01,29,11,32,610.20
2023,01,29,11,33,612.00
2023,01,29,11,34,612.30
2023,01,29,11,35,613.80
2023,01,29,11,36,615.00
2023,01,29,11,37,615.00
2023,01,29,11,38,615.00
2023,01,29,11,39,615.00
2023,01,29,11,40,615.10
2023,01,29,11,41,617.00
2023,01,29,11,42,617.00
2023,01,29,11,43,617.70
2023,01,29,11,44,619.00
2023,01,29,11,45,620.10
2023,01,29,11,46,621.70
2023,01,29,11,47,623.60
2023,01,29,11,48,624.00
2023,01,29,11,49,624.00
2023,01,29,11,50,624.00
2023,01,29,11,51,624.00
2023,01,29,11,52,623.20
2023,01,29,11,53,624.00
2023,01,29,11,54,624.80
2023,01,29,11,55,624.00
2023,01,29,11,56,625.60
2023,01,29,11,57,626.00
2023,01,29,11,58,628.50
2023,01,29,11,59,631.00
2023,01,29,12,00,631.00
2023,01,29,12,01,631.00
2023,01,29,12,02,629.90
2023,01,29,12,03,628.40
2023,01,29,12,04,626.50
2023,01,29,12,05,628.70
2023,01,29,12,06,628.10
2023,01,29,12,07,629.30
2023,01,29,12,08,630.20
2023,01,29,12,09,629.20
2023,01,29,12,10,631.00
2023,01,29,12,11,629.80
2023,01,29,12,12,631.70
2023,01,29,12,13,633.00
2023,01,29,12,14,631.10
2023,01,29,12,15,628.00
2023,01,29,12,16,627.10
2023,01,29,12,17,623.40
2023,01,29,12,18,622.00
2023,01,29,12,19,622.00
2023,01,29,12,20,622.00
2023,01,29,12,21,623.40
2023,01,29,12,22,621.50
2023,01,29,12,23,623.70
2023,01,29,12,24,621.80
2023,01,29,12,25,626.00
2023,01,29,12,26,626.00
2023,01,29,12,27,626.00
2023,01,29,12,28,627.70
2023,01,29,12,29,627.00
2023,01,29,12,30,626.00
2023,01,29,12,31,624.30
2023,01,29,12,32,627.80
2023,01,29,12,33,627.70
2023,01,29,12,34,625.40
2023,01,29,12,35,624.00
2023,01,29,12,36,625.10
2023,01,29,12,37,626.00
2023,01,29,12,38,626.00
2023,01,29,12,39,624.30
2023,01,29,12,40,622.10
2023,01,29,12,41,622.20
2023,01,29,12,42,623.50
2023,01,29,12,43,610.60
2023,01,29,12,44,604.80
2023,01,29,12,45,621.50
2023,01,29,12,46,621.00
2023,01,29,12,47,619.50
2023,01,29,12,48,620.80
2023,01,29,12,49,588.80
2023,01,29,12,50,587.00
2023,01,29,12,51,416.50
2023,01,29,12,52,44.90
2023,01,29,12,53,42.00
2023,01,29,12,54,40.80
2023,01,29,12,55,40.00
2023,01,29,12,56,47.50
2023,01,29,12,57,63.30
2023,01,29,12,58,67.10
2023,01,29,12,59,44.00
2023,01,29,13,00,46.60
2023,01,29,13,01,47.90
2023,01,29,13,02,41.50
2023,01,29,13,03,67.40
2023,01,29,13,04,84.00
2023,01,29,13,05,233.60
2023,01,29,13,06,271.00
2023,01,29,13,07,74.80
2023,01,29,13,08,40.00
2023,01,29,13,09,39.10
2023,01,29,13,10,37.00
2023,01,29,13,11,35.90
2023,01,29,13,12,35.00
2023,01,29,13,13,36.50
2023,01,29,13,14,38.70
2023,01,29,13,15,47.10
2023,01,29,13,16,53.70
2023,01,29,13,17,40.50
2023,01,29,13,18,35.30
2023,01,29,13,19,33.00
2023,01,29,13,20,33.00
2023,01,29,13,21,33.00
2023,01,29,13,22,33.00
2023,01,29,13,23,33.00
2023,01,29,13,24,32.10
2023,01,29,13,25,33.00
2023,01,29,13,26,36.70
2023,01,29,13,27,47.60
2023,01,29,13,28,50.70
2023,01,29,13,29,44.60
2023,01,29,13,30,38.20
2023,01,29,13,31,49.50
2023,01,29,13,32,70.60
2023,01,29,13,33,102.60
2023,01,29,13,34,123.10
2023,01,29,13,35,102.50
2023,01,29,13,36,71.00
2023,01,29,13,37,43.00
2023,01,29,13,38,32.80
2023,01,29,13,39,30.40
2023,01,29,13,40,30.00
2023,01,29,13,41,30.00
2023,01,29,13,42,30.00
2023,01,29,13,43,30.00
2023,01,29,13,44,30.00
2023,01,29,13,45,30.00
2023,01,29,13,46,30.00
2023,01,29,13,47,30.00
2023,01,29,13,48,30.00
2023,01,29,13,49,28.10
2023,01,29,13,50,28.00
2023,01,29,13,51,28.00
2023,01,29,13,52,28.00
2023,01,29,13,53,28.00
2023,01,29,13,54,28.00
2023,01,29,13,55,28.00
2023,01,29,13,56,28.00
2023,01,29,13,57,28.00
2023,01,29,13,58,28.00
2023,01,29,13,59,36.40
2023,01,29,14,00,91.70
2023,01,29,14,01,129.60
2023,01,29,14,02,74.80
2023,01,29,14,03,37.40
2023,01,29,14,04,30.00
2023,01,29,14,05,28.40
2023,01,29,14,06,31.80
2023,01,29,14,07,32.60
2023,01,29,14,08,37.00
2023,01,29,14,09,48.70
2023,01,29,14,10,63.20
2023,01,29,14,11,48.90
2023,01,29,14,12,43.80
2023,01,29,14,13,34.20
2023,01,29,14,14,30.30
2023,01,29,14,15,29.80
2023,01,29,14,16,26.30
2023,01,29,14,17,28.00
2023,01,29,14,18,27.30
2023,01,29,14,19,26.00
2023,01,29,14,20,26.00
2023,01,29,14,21,26.00
2023,01,29,14,22,26.00
2023,01,29,14,23,26.00
2023,01,29,14,24,31.10
2023,01,29,14,25,40.80
2023,01,29,14,26,42.30
2023,01,29,14,27,40.90
2023,01,29,14,28,44.00
2023,01,29,14,29,49.70
2023,01,29,14,30,62.60
2023,01,29,14,31,63.80
2023,01,29,14,32,81.30
2023,01,29,14,33,87.10
2023,01,29,14,34,52.00
2023,01,29,14,35,32.90
2023,01,29,14,36,26.00
2023,01,29,14,37,26.00
2023,01,29,14,38,25.40
2023,01,29,14,39,25.00
2023,01,29,14,40,25.00
2023,01,29,14,41,25.00
2023,01,29,14,42,25.00
2023,01,29,14,43,25.00
2023,01,29,14,44,25.00
2023,01,29,14,45,25.00
2023,01,29,14,46,25.00
2023,01,29,14,47,25.00
2023,01,29,14,48,25.00
2023,01,29,14,49,27.80
2023,01,29,14,50,29.60
2023,01,29,14,51,25.80
2023,01,29,14,52,24.40
2023,01,29,14,53,23.00
2023,01,29,14,54,23.00
2023,01,29,14,55,23.00
2023,01,29,14,56,23.00
2023,01,29,14,57,23.00
2023,01,29,14,58,23.00
2023,01,29,14,59,23.00
2023,01,29,15,00,23.00
2023,01,29,15,01,23.00
2023,01,29,15,02,23.00
2023,01,29,15,03,23.00
2023,01,29,15,04,23.00
2023,01,29,15,05,23.00
2023,01,29,15,06,23.00
2023,01,29,15,07,23.00
2023,01,29,15,08,23.00
2023,01,29,15,09,23.00
2023,01,29,15,10,22.20
2023,01,29,15,11,21.00
2023,01,29,15,12,21.00
2023,01,29,15,13,21.00
2023,01,29,15,14,21.00
2023,01,29,15,15,21.00
2023,01,29,15,16,21.00
2023,01,29,15,17,21.00
2023,01,29,15,18,21.00
2023,01,29,15,19,21.00
2023,01,29,15,20,21.00
2023,01,29,15,21,21.00
2023,01,29,15,22,21.00
2023,01,29,15,23,19.20
2023,01,29,15,24,19.00
2023,01,29,15,25,19.00
2023,01,29,15,26,19.00
2023,01,29,15,27,19.00
2023,01,29,15,28,19.00
2023,01,29,15,29,19.00
2023,01,29,15,30,19.00
2023,01,29,15,31,19.00
2023,01,29,15,32,19.00
2023,01,29,15,33,19.00
2023,01,29,15,34,19.00
2023,01,29,15,35,19.00
2023,01,29,15,36,19.00
2023,01,29,15,37,19.00
2023,01,29,15,38,19.00
2023,01,29,15,39,19.00
2023,01,29,15,40,19.00
2023,01,29,15,41,18.10
2023,01,29,15,42,18.00
2023,01,29,15,43,18.00
2023,01,29,15,44,18.00
2023,01,29,15,45,18.00
2023,01,29,15,46,18.00
2023,01,29,15,47,18.00
2023,01,29,15,48,18.00
2023,01,29,15,49,18.00
2023,01,29,15,50,18.00
2023,01,29,15,51,18.00
2023,01,29,15,52,18.00
2023,01,29,15,53,18.00
2023,01,29,15,54,16.90
2023,01,29,15,55,16.00
2023,01,29,15,56,16.00
2023,01,29,15,57,16.00
2023,01,29,15,58,16.00
2023,01,29,15,59,16.00
2023,01,29,16,00,16.00
2023,01,29,16,01,16.00
2023,01,29,16,02,16.00
2023,01,29,16,03,16.00
2023,01,29,16,04,16.00
2023,01,29,16,05,16.00
2023,01,29,16,06,16.00
2023,01,29,16,07,14.10
2023,01,29,16,08,14.00
2023,01,29,16,09,14.00
2023,01,29,16,10,14.00
2023,01,29,16,11,14.00
2023,01,29,16,12,14.00
2023,01,29,16,13,14.00
2023,01,29,16,14,14.00
2023,01,29,16,15,14.00
2023,01,29,16,16,14.00
2023,01,29,16,17,13.60
2023,01,29,16,18,12.00
2023,01,29,16,19,12.00
2023,01,29,16,20,12.00
2023,01,29,16,21,12.00
2023,01,29,16,22,12.00
2023,01,29,16,23,12.00
2023,01,29,16,24,12.00
2023,01,29,16,25,12.00
2023,01,29,16,26,12.00
2023,01,29,16,27,12.00
2023,01,29,16,28,12.00
2023,01,29,16,29,12.00
2023,01,29,16,30,11.30
2023,01,29,16,31,11.00
2023,01,29,16,32,11.00
2023,01,29,16,33,11.00
2023,01,29,16,34,11.00
2023,01,29,16,35,11.00
2023,01,29,16,36,11.00
2023,01,29,16,37,11.00
2023,01,29,16,38,11.00
2023,01,29,16,39,11.00
2023,01,29,16,40,9.30
2023,01,29,16,41,9.00
2023,01,29,16,42,9.00
2023,01,29,16,43,9.00
2023,01,29,16,44,9.00
2023,01,29,16,45,9.00
2023,01,29,16,46,9.00
2023,01,29,16,47,9.00
2023,01,29,16,48,7.50
2023,01,29,16,49,7.00
2023,01,29,16,50,7.00
2023,01,29,16,51,7.00
2023,01,29,16,52,7.00
2023,01,29,16,53,7.00
2023,01,29,16,54,7.00
2023,01,29,16,55,7.00
2023,01,29,16,56,5.60
2023,01,29,16,57,5.00
2023,01,29,16,58,5.00
2023,01,29,16,59,5.00
2023,01,29,17,00,5.00
2023,01,29,17,01,5.00
2023,01,29,17,02,5.00
2023,01,29,17,03,5.00
2023,01,29,17,04,1.70
2023,01,29,17,05,0.00
2023,01,29,17,06,0.00
2023,01,29,17,07,0.00
2023,01,29,17,08,0.00
2023,01,29,17,09,0.00
2023,01,29,17,10,0.00
2023,01,29,17,11,0.00
2023,01,29,17,12,0.00
2023,01,29,17,13,0.00
2023,01,29,17,14,0.00
2023,01,29,17,15,0.00
2023,01,29,17,16,0.00
2023,01,29,17,17,0.00
2023,01,29,17,18,0.00
2023,01,29,17,19,0.00
2023,01,29,17,20,0.00
2023,01,29,17,21,0.00
2023,01,29,17,22,0.00
2023,01,29,17,23,0.00
2023,01,29,17,24,0.00
2023,01,29,17,25,0.00
2023,01,29,17,26,0.00
2023,01,29,17,27,0.00
2023,01,29,17,28,0.00
2023,01,29,17,29,0.00
2023,01,29,17,30,0.00
2023,01,29,17,31,0.00